Location: Fort Worth, Tx
(32.7431°N, 97.3695°W)
Time: 01:43:27
(UTC-04:00)

Vanguard 2 - Pass Details

Date: 27 February 2024
Orbit: 552 x 2916 km, 32.9° (Epoch: 24 April)

Event Time Altitude Azimuth Distance (km) Brightness Sun altitude
Rises 01:09:51 0° 284° (WNW) 5,759 12.2 -64.6°
Reaches altitude 10° 01:13:15 10° 282° (WNW) 5,000 11.7 -64.9°
Enters shadow 01:15:09 16° 280° (W) 4,600 11.5 -65.0°
